Date_Time,Julian_Date,Latitude,Longitude,Instrument_Depth,U,V,Speed,Direction
(yyyy-mm-dd hh:mn:ss UTC),(JD),(+ deg. North),(+ deg. East),(m),(cm/s),(cm/s),(cm/s),(deg True)
1984-02-02 17:30:00 UTC,2445733.229167,28.7317,-95.2428,0036,-25.94,1.81,26.0000,274.0000
1984-02-02 18:00:00 UTC,2445733.250000,28.7317,-95.2428,0036,-25.94,1.81,26.0000,274.0000
1984-02-02 18:30:00 UTC,2445733.270833,28.7317,-95.2428,0036,-25.81,3.17,26.0000,277.0000
1984-02-02 19:00:00 UTC,2445733.291667,28.7317,-95.2428,0036,-25.33,5.85,26.0000,283.0000
1984-02-02 19:30:00 UTC,2445733.312500,28.7317,-95.2428,0036,-24.58,8.46,26.0000,289.0000
1984-02-02 20:00:00 UTC,2445733.333333,28.7317,-95.2428,0036,-23.34,8.96,25.0000,291.0000
1984-02-02 20:30:00 UTC,2445733.354167,28.7317,-95.2428,0036,-22.09,9.38,24.0000,293.0000
1984-02-02 21:00:00 UTC,2445733.375000,28.7317,-95.2428,0036,-18.71,9.53,21.0000,297.0000
1984-02-02 21:30:00 UTC,2445733.395833,28.7317,-95.2428,0036,-15.43,9.27,18.0000,301.0000
1984-02-02 22:00:00 UTC,2445733.416667,28.7317,-95.2428,0036,-11.87,7.42,14.0000,302.0000
1984-02-02 22:30:00 UTC,2445733.437500,28.7317,-95.2428,0036,-9.33,5.83,11.0000,302.0000
1984-02-02 23:00:00 UTC,2445733.458333,28.7317,-95.2428,0036,-8.28,3.52,9.0000,293.0000
1984-02-02 23:30:00 UTC,2445733.479167,28.7317,-95.2428,0036,-8.80,1.87,9.0000,282.0000
1984-02-03 00:00:00 UTC,2445733.500000,28.7317,-95.2428,0036,-9.90,1.39,10.0000,278.0000
1984-02-03 00:30:00 UTC,2445733.520833,28.7317,-95.2428,0036,-9.90,1.39,10.0000,278.0000
1984-02-03 01:00:00 UTC,2445733.541667,28.7317,-95.2428,0036,-7.96,0.84,8.0000,276.0000
1984-02-03 01:30:00 UTC,2445733.562500,28.7317,-95.2428,0036,-9.00,0.16,9.0000,271.0000
1984-02-03 02:00:00 UTC,2445733.583333,28.7317,-95.2428,0036,-13.83,-2.19,14.0000,261.0000
1984-02-03 02:30:00 UTC,2445733.604167,28.7317,-95.2428,0036,-17.21,-5.26,18.0000,253.0000
1984-02-03 03:00:00 UTC,2445733.625000,28.7317,-95.2428,0036,-16.69,-6.74,18.0000,248.0000
1984-02-03 03:30:00 UTC,2445733.645833,28.7317,-95.2428,0036,-16.78,-8.92,19.0000,242.0000
1984-02-03 04:00:00 UTC,2445733.666667,28.7317,-95.2428,0036,-17.41,-11.74,21.0000,236.0000
1984-02-03 04:30:00 UTC,2445733.687500,28.7317,-95.2428,0036,-18.37,-13.84,23.0000,233.0000
1984-02-03 05:00:00 UTC,2445733.708333,28.7317,-95.2428,0036,-18.91,-14.78,24.0000,232.0000
1984-02-03 05:30:00 UTC,2445733.729167,28.7317,-95.2428,0036,-18.12,-14.16,23.0000,232.0000
1984-02-03 06:00:00 UTC,2445733.750000,28.7317,-95.2428,0036,-16.85,-14.14,22.0000,230.0000
1984-02-03 06:30:00 UTC,2445733.770833,28.7317,-95.2428,0036,-16.82,-15.69,23.0000,227.0000
1984-02-03 07:00:00 UTC,2445733.791667,28.7317,-95.2428,0036,-17.05,-18.28,25.0000,223.0000
1984-02-03 07:30:00 UTC,2445733.812500,28.7317,-95.2428,0036,-17.40,-19.32,26.0000,222.0000
1984-02-03 08:00:00 UTC,2445733.833333,28.7317,-95.2428,0036,-18.07,-20.06,27.0000,222.0000
1984-02-03 08:30:00 UTC,2445733.854167,28.7317,-95.2428,0036,-18.74,-20.81,28.0000,222.0000
1984-02-03 09:00:00 UTC,2445733.875000,28.7317,-95.2428,0036,-19.03,-21.89,29.0000,221.0000
1984-02-03 09:30:00 UTC,2445733.895833,28.7317,-95.2428,0036,-19.03,-21.89,29.0000,221.0000
1984-02-03 10:00:00 UTC,2445733.916667,28.7317,-95.2428,0036,-18.64,-22.22,29.0000,220.0000
1984-02-03 10:30:00 UTC,2445733.937500,28.7317,-95.2428,0036,-17.85,-22.85,29.0000,218.0000
1984-02-03 11:00:00 UTC,2445733.958333,28.7317,-95.2428,0036,-17.89,-26.53,32.0000,214.0000
1984-02-03 11:30:00 UTC,2445733.979167,28.7317,-95.2428,0036,-18.50,-32.04,37.0000,210.0000
1984-02-03 12:00:00 UTC,2445734.000000,28.7317,-95.2428,0036,-19.07,-37.42,42.0000,207.0000
1984-02-03 12:30:00 UTC,2445734.020833,28.7317,-95.2428,0036,-20.88,-40.99,46.0000,207.0000
1984-02-03 13:00:00 UTC,2445734.041667,28.7317,-95.2428,0036,-22.53,-42.38,48.0000,208.0000
1984-02-03 13:30:00 UTC,2445734.062500,28.7317,-95.2428,0036,-25.00,-43.30,50.0000,210.0000
1984-02-03 14:00:00 UTC,2445734.083333,28.7317,-95.2428,0036,-26.78,-44.57,52.0000,211.0000
1984-02-03 14:30:00 UTC,2445734.104167,28.7317,-95.2428,0036,-28.32,-43.61,52.0000,213.0000
1984-02-03 15:00:00 UTC,2445734.125000,28.7317,-95.2428,0036,-28.52,-42.28,51.0000,214.0000
1984-02-03 15:30:00 UTC,2445734.145833,28.7317,-95.2428,0036,-28.68,-40.96,50.0000,215.0000
1984-02-03 16:00:00 UTC,2445734.166667,28.7317,-95.2428,0036,-28.89,-38.33,48.0000,217.0000
1984-02-03 16:30:00 UTC,2445734.187500,28.7317,-95.2428,0036,-28.32,-36.25,46.0000,218.0000
1984-02-03 17:00:00 UTC,2445734.208333,28.7317,-95.2428,0036,-27.00,-32.17,42.0000,220.0000
1984-02-03 17:30:00 UTC,2445734.229167,28.7317,-95.2428,0036,-25.07,-29.88,39.0000,220.0000
1984-02-03 18:00:00 UTC,2445734.250000,28.7317,-95.2428,0036,-22.96,-26.41,35.0000,221.0000
1984-02-03 18:30:00 UTC,2445734.270833,28.7317,-95.2428,0036,-20.46,-21.94,30.0000,223.0000
1984-02-03 19:00:00 UTC,2445734.291667,28.7317,-95.2428,0036,-17.68,-17.68,25.0000,225.0000
1984-02-03 19:30:00 UTC,2445734.312500,28.7317,-95.2428,0036,-15.83,-15.28,22.0000,226.0000
1984-02-03 20:00:00 UTC,2445734.333333,28.7317,-95.2428,0036,-14.34,-12.47,19.0000,229.0000
1984-02-03 20:30:00 UTC,2445734.354167,28.7317,-95.2428,0036,-12.78,-9.63,16.0000,233.0000
1984-02-03 21:00:00 UTC,2445734.375000,28.7317,-95.2428,0036,-10.10,-8.18,13.0000,231.0000
1984-02-03 21:30:00 UTC,2445734.395833,28.7317,-95.2428,0036,-6.95,-7.19,10.0000,224.0000
1984-02-03 22:00:00 UTC,2445734.416667,28.7317,-95.2428,0036,-4.64,-7.71,9.0000,211.0000
1984-02-03 22:30:00 UTC,2445734.437500,28.7317,-95.2428,0036,-2.93,-8.51,9.0000,199.0000
1984-02-03 23:00:00 UTC,2445734.458333,28.7317,-95.2428,0036,-2.33,-8.69,9.0000,195.0000
1984-02-03 23:30:00 UTC,2445734.479167,28.7317,-95.2428,0036,-1.25,-7.90,8.0000,189.0000
1984-02-04 00:00:00 UTC,2445734.500000,28.7317,-95.2428,0036,0.28,-8.00,8.0000,178.0000
1984-02-04 00:30:00 UTC,2445734.520833,28.7317,-95.2428,0036,1.94,-7.76,8.0000,166.0000
1984-02-04 01:00:00 UTC,2445734.541667,28.7317,-95.2428,0036,3.18,-6.24,7.0000,153.0000
1984-02-04 01:30:00 UTC,2445734.562500,28.7317,-95.2428,0036,3.81,-5.87,7.0000,147.0000
1984-02-04 02:00:00 UTC,2445734.583333,28.7317,-95.2428,0036,4.31,-5.52,7.0000,142.0000
1984-02-04 02:30:00 UTC,2445734.604167,28.7317,-95.2428,0036,5.44,-4.41,7.0000,129.0000
1984-02-04 03:00:00 UTC,2445734.625000,28.7317,-95.2428,0036,8.09,-3.95,9.0000,116.0000
1984-02-04 03:30:00 UTC,2445734.645833,28.7317,-95.2428,0036,12.36,-4.02,13.0000,108.0000
1984-02-04 04:00:00 UTC,2445734.666667,28.7317,-95.2428,0036,16.17,-5.25,17.0000,108.0000
1984-02-04 04:30:00 UTC,2445734.687500,28.7317,-95.2428,0036,17.36,-7.73,19.0000,114.0000
1984-02-04 05:00:00 UTC,2445734.708333,28.7317,-95.2428,0036,18.37,-10.18,21.0000,119.0000
1984-02-04 05:30:00 UTC,2445734.729167,28.7317,-95.2428,0036,18.86,-11.33,22.0000,121.0000
1984-02-04 06:00:00 UTC,2445734.750000,28.7317,-95.2428,0036,19.42,-10.33,22.0000,118.0000
1984-02-04 06:30:00 UTC,2445734.770833,28.7317,-95.2428,0036,20.25,-8.60,22.0000,113.0000
1984-02-04 07:00:00 UTC,2445734.791667,28.7317,-95.2428,0036,21.87,-7.11,23.0000,108.0000
1984-02-04 07:30:00 UTC,2445734.812500,28.7317,-95.2428,0036,22.11,-6.34,23.0000,106.0000
1984-02-04 08:00:00 UTC,2445734.833333,28.7317,-95.2428,0036,21.15,-6.06,22.0000,106.0000
1984-02-04 08:30:00 UTC,2445734.854167,28.7317,-95.2428,0036,21.44,-4.95,22.0000,103.0000
1984-02-04 09:00:00 UTC,2445734.875000,28.7317,-95.2428,0036,21.84,-2.68,22.0000,97.0000
1984-02-04 09:30:00 UTC,2445734.895833,28.7317,-95.2428,0036,19.89,-2.09,20.0000,96.0000
1984-02-04 10:00:00 UTC,2445734.916667,28.7317,-95.2428,0036,18.07,-5.87,19.0000,108.0000
1984-02-04 10:30:00 UTC,2445734.937500,28.7317,-95.2428,0036,16.77,-10.89,20.0000,123.0000
1984-02-04 11:00:00 UTC,2445734.958333,28.7317,-95.2428,0036,15.09,-13.12,20.0000,131.0000
1984-02-04 11:30:00 UTC,2445734.979167,28.7317,-95.2428,0036,12.71,-14.12,19.0000,138.0000
1984-02-04 12:00:00 UTC,2445735.000000,28.7317,-95.2428,0036,11.17,-15.37,19.0000,144.0000
1984-02-04 12:30:00 UTC,2445735.020833,28.7317,-95.2428,0036,8.33,-17.08,19.0000,154.0000
1984-02-04 13:00:00 UTC,2445735.041667,28.7317,-95.2428,0036,2.07,-16.87,17.0000,173.0000
1984-02-04 13:30:00 UTC,2445735.062500,28.7317,-95.2428,0036,-3.88,-14.49,15.0000,195.0000
1984-02-04 14:00:00 UTC,2445735.083333,28.7317,-95.2428,0036,-6.79,-12.24,14.0000,209.0000
1984-02-04 14:30:00 UTC,2445735.104167,28.7317,-95.2428,0036,-7.21,-12.00,14.0000,211.0000
1984-02-04 15:00:00 UTC,2445735.125000,28.7317,-95.2428,0036,-6.57,-12.36,14.0000,208.0000
1984-02-04 15:30:00 UTC,2445735.145833,28.7317,-95.2428,0036,-7.83,-11.61,14.0000,214.0000
1984-02-04 16:00:00 UTC,2445735.166667,28.7317,-95.2428,0036,-9.73,-10.07,14.0000,224.0000
1984-02-04 16:30:00 UTC,2445735.187500,28.7317,-95.2428,0036,-10.88,-8.81,14.0000,231.0000
1984-02-04 17:00:00 UTC,2445735.208333,28.7317,-95.2428,0036,-11.18,-8.43,14.0000,233.0000
1984-02-04 17:30:00 UTC,2445735.229167,28.7317,-95.2428,0036,-10.38,-7.82,13.0000,233.0000
1984-02-04 18:00:00 UTC,2445735.250000,28.7317,-95.2428,0036,-8.90,-6.47,11.0000,234.0000
1984-02-04 18:30:00 UTC,2445735.270833,28.7317,-95.2428,0036,-8.39,-5.45,10.0000,237.0000
1984-02-04 19:00:00 UTC,2445735.291667,28.7317,-95.2428,0036,-8.48,-5.30,10.0000,238.0000
1984-02-04 19:30:00 UTC,2445735.312500,28.7317,-95.2428,0036,-7.55,-4.90,9.0000,237.0000
1984-02-04 20:00:00 UTC,2445735.333333,28.7317,-95.2428,0036,-7.79,-4.50,9.0000,240.0000
1984-02-04 20:30:00 UTC,2445735.354167,28.7317,-95.2428,0036,-8.34,-3.37,9.0000,248.0000
1984-02-04 21:00:00 UTC,2445735.375000,28.7317,-95.2428,0036,-7.85,-1.53,8.0000,259.0000
1984-02-04 21:30:00 UTC,2445735.395833,28.7317,-95.2428,0036,-7.97,-0.70,8.0000,265.0000
1984-02-04 22:00:00 UTC,2445735.416667,28.7317,-95.2428,0036,-6.95,-0.85,7.0000,263.0000
1984-02-04 22:30:00 UTC,2445735.437500,28.7317,-95.2428,0036,-6.87,-1.34,7.0000,259.0000
1984-02-04 23:00:00 UTC,2445735.458333,28.7317,-95.2428,0036,-6.85,-1.46,7.0000,258.0000
1984-02-04 23:30:00 UTC,2445735.479167,28.7317,-95.2428,0036,-6.73,-1.93,7.0000,254.0000
1984-02-05 00:00:00 UTC,2445735.500000,28.7317,-95.2428,0036,-6.44,-2.74,7.0000,247.0000
1984-02-05 00:30:00 UTC,2445735.520833,28.7317,-95.2428,0036,-7.00,-3.88,8.0000,241.0000
1984-02-05 01:00:00 UTC,2445735.541667,28.7317,-95.2428,0036,-5.52,-4.31,7.0000,232.0000
1984-02-05 01:30:00 UTC,2445735.562500,28.7317,-95.2428,0036,-5.56,-5.75,8.0000,224.0000
1984-02-05 02:00:00 UTC,2445735.583333,28.7317,-95.2428,0036,-5.03,-6.22,8.0000,219.0000
1984-02-05 02:30:00 UTC,2445735.604167,28.7317,-95.2428,0036,-5.03,-6.22,8.0000,219.0000
1984-02-05 03:00:00 UTC,2445735.625000,28.7317,-95.2428,0036,-4.31,-5.52,7.0000,218.0000
1984-02-05 03:30:00 UTC,2445735.645833,28.7317,-95.2428,0036,-2.87,-4.10,5.0000,215.0000
1984-02-05 04:00:00 UTC,2445735.666667,28.7317,-95.2428,0036,-1.50,-2.60,3.0000,210.0000
1984-02-05 04:30:00 UTC,2445735.687500,28.7317,-95.2428,0036,0.14,-0.99,1.0000,172.0000
1984-02-05 05:00:00 UTC,2445735.708333,28.7317,-95.2428,0036,1.03,-1.71,2.0000,149.0000
1984-02-05 05:30:00 UTC,2445735.729167,28.7317,-95.2428,0036,0.83,-3.91,4.0000,168.0000
1984-02-05 06:00:00 UTC,2445735.750000,28.7317,-95.2428,0036,0.10,-6.00,6.0000,179.0000
1984-02-05 06:30:00 UTC,2445735.770833,28.7317,-95.2428,0036,-1.11,-7.92,8.0000,188.0000
1984-02-05 07:00:00 UTC,2445735.791667,28.7317,-95.2428,0036,-2.93,-8.51,9.0000,199.0000
1984-02-05 07:30:00 UTC,2445735.812500,28.7317,-95.2428,0036,-5.50,-9.53,11.0000,210.0000
1984-02-05 08:00:00 UTC,2445735.833333,28.7317,-95.2428,0036,-6.62,-8.79,11.0000,217.0000
1984-02-05 08:30:00 UTC,2445735.854167,28.7317,-95.2428,0036,-7.07,-8.43,11.0000,220.0000
1984-02-05 09:00:00 UTC,2445735.875000,28.7317,-95.2428,0036,-7.91,-7.64,11.0000,226.0000
1984-02-05 09:30:00 UTC,2445735.895833,28.7317,-95.2428,0036,-9.01,-6.31,11.0000,235.0000
1984-02-05 10:00:00 UTC,2445735.916667,28.7317,-95.2428,0036,-8.75,-4.85,10.0000,241.0000
1984-02-05 10:30:00 UTC,2445735.937500,28.7317,-95.2428,0036,-8.83,-4.69,10.0000,242.0000
1984-02-05 11:00:00 UTC,2445735.958333,28.7317,-95.2428,0036,-7.79,-4.50,9.0000,240.0000
1984-02-05 11:30:00 UTC,2445735.979167,28.7317,-95.2428,0036,-6.71,-4.36,8.0000,237.0000
1984-02-05 12:00:00 UTC,2445736.000000,28.7317,-95.2428,0036,-6.12,-3.39,7.0000,241.0000
1984-02-05 12:30:00 UTC,2445736.020833,28.7317,-95.2428,0036,-4.60,-1.95,5.0000,247.0000
1984-02-05 13:00:00 UTC,2445736.041667,28.7317,-95.2428,0036,-3.11,-2.52,4.0000,231.0000
1984-02-05 13:30:00 UTC,2445736.062500,28.7317,-95.2428,0036,-2.27,-4.46,5.0000,207.0000
1984-02-05 14:00:00 UTC,2445736.083333,28.7317,-95.2428,0036,-2.34,-5.52,6.0000,203.0000
1984-02-05 14:30:00 UTC,2445736.104167,28.7317,-95.2428,0036,-3.80,-8.16,9.0000,205.0000
1984-02-05 15:00:00 UTC,2445736.125000,28.7317,-95.2428,0036,-6.18,-10.29,12.0000,211.0000
1984-02-05 15:30:00 UTC,2445736.145833,28.7317,-95.2428,0036,-8.60,-12.29,15.0000,215.0000
1984-02-05 16:00:00 UTC,2445736.166667,28.7317,-95.2428,0036,-9.40,-12.94,16.0000,216.0000
1984-02-05 16:30:00 UTC,2445736.187500,28.7317,-95.2428,0036,-10.93,-13.02,17.0000,220.0000
1984-02-05 17:00:00 UTC,2445736.208333,28.7317,-95.2428,0036,-11.81,-12.23,17.0000,224.0000
1984-02-05 17:30:00 UTC,2445736.229167,28.7317,-95.2428,0036,-11.89,-10.71,16.0000,228.0000
1984-02-05 18:00:00 UTC,2445736.250000,28.7317,-95.2428,0036,-10.88,-8.81,14.0000,231.0000
1984-02-05 18:30:00 UTC,2445736.270833,28.7317,-95.2428,0036,-9.71,-7.05,12.0000,234.0000
1984-02-05 19:00:00 UTC,2445736.291667,28.7317,-95.2428,0036,-9.06,-4.23,10.0000,245.0000
1984-02-05 19:30:00 UTC,2445736.312500,28.7317,-95.2428,0036,-8.97,0.78,9.0000,275.0000
1984-02-05 20:00:00 UTC,2445736.333333,28.7317,-95.2428,0036,-7.63,4.77,9.0000,302.0000
1984-02-05 20:30:00 UTC,2445736.354167,28.7317,-95.2428,0036,-6.25,6.47,9.0000,316.0000
1984-02-05 21:00:00 UTC,2445736.375000,28.7317,-95.2428,0036,-5.03,7.46,9.0000,326.0000
1984-02-05 21:30:00 UTC,2445736.395833,28.7317,-95.2428,0036,-4.07,9.14,10.0000,336.0000
1984-02-05 22:00:00 UTC,2445736.416667,28.7317,-95.2428,0036,-3.11,11.59,12.0000,345.0000
1984-02-05 22:30:00 UTC,2445736.437500,28.7317,-95.2428,0036,-0.63,11.98,12.0000,357.0000
1984-02-05 23:00:00 UTC,2445736.458333,28.7317,-95.2428,0036,1.58,12.90,13.0000,7.0000
1984-02-05 23:30:00 UTC,2445736.479167,28.7317,-95.2428,0036,2.70,11.69,12.0000,13.0000
1984-02-06 00:00:00 UTC,2445736.500000,28.7317,-95.2428,0036,3.11,11.59,12.0000,15.0000
1984-02-06 00:30:00 UTC,2445736.520833,28.7317,-95.2428,0036,3.11,11.59,12.0000,15.0000
1984-02-06 01:00:00 UTC,2445736.541667,28.7317,-95.2428,0036,3.11,11.59,12.0000,15.0000
1984-02-06 01:30:00 UTC,2445736.562500,28.7317,-95.2428,0036,3.31,11.54,12.0000,16.0000
1984-02-06 02:00:00 UTC,2445736.583333,28.7317,-95.2428,0036,3.80,12.43,13.0000,17.0000
1984-02-06 02:30:00 UTC,2445736.604167,28.7317,-95.2428,0036,4.33,13.31,14.0000,18.0000
1984-02-06 03:00:00 UTC,2445736.625000,28.7317,-95.2428,0036,5.38,14.00,15.0000,21.0000
1984-02-06 03:30:00 UTC,2445736.645833,28.7317,-95.2428,0036,6.10,13.70,15.0000,24.0000
1984-02-06 04:00:00 UTC,2445736.666667,28.7317,-95.2428,0036,7.21,12.00,14.0000,31.0000
1984-02-06 04:30:00 UTC,2445736.687500,28.7317,-95.2428,0036,8.49,8.49,12.0000,45.0000
1984-02-06 05:00:00 UTC,2445736.708333,28.7317,-95.2428,0036,9.43,5.67,11.0000,59.0000
1984-02-06 05:30:00 UTC,2445736.729167,28.7317,-95.2428,0036,8.73,2.18,9.0000,76.0000
1984-02-06 06:00:00 UTC,2445736.750000,28.7317,-95.2428,0036,7.90,-1.25,8.0000,99.0000
1984-02-06 06:30:00 UTC,2445736.770833,28.7317,-95.2428,0036,6.12,-3.39,7.0000,119.0000
1984-02-06 07:00:00 UTC,2445736.791667,28.7317,-95.2428,0036,4.77,-5.12,7.0000,137.0000
1984-02-06 07:30:00 UTC,2445736.812500,28.7317,-95.2428,0036,2.34,-5.52,6.0000,157.0000
1984-02-06 08:00:00 UTC,2445736.833333,28.7317,-95.2428,0036,-0.52,-4.97,5.0000,186.0000
1984-02-06 08:30:00 UTC,2445736.854167,28.7317,-95.2428,0036,-3.43,-2.06,4.0000,239.0000
1984-02-06 09:00:00 UTC,2445736.875000,28.7317,-95.2428,0036,-4.37,-2.42,5.0000,241.0000
1984-02-06 09:30:00 UTC,2445736.895833,28.7317,-95.2428,0036,-2.93,-2.73,4.0000,227.0000
1984-02-06 10:00:00 UTC,2445736.916667,28.7317,-95.2428,0036,-2.98,-0.37,3.0000,263.0000
1984-02-06 10:30:00 UTC,2445736.937500,28.7317,-95.2428,0036,-2.68,2.97,4.0000,318.0000
1984-02-06 11:00:00 UTC,2445736.958333,28.7317,-95.2428,0036,-3.00,5.20,6.0000,330.0000
1984-02-06 11:30:00 UTC,2445736.979167,28.7317,-95.2428,0036,-3.86,4.60,6.0000,320.0000
1984-02-06 12:00:00 UTC,2445737.000000,28.7317,-95.2428,0036,-7.13,3.63,8.0000,297.0000
1984-02-06 12:30:00 UTC,2445737.020833,28.7317,-95.2428,0036,-8.61,2.63,9.0000,287.0000
1984-02-06 13:00:00 UTC,2445737.041667,28.7317,-95.2428,0036,-9.74,2.25,10.0000,283.0000
1984-02-06 13:30:00 UTC,2445737.062500,28.7317,-95.2428,0036,-9.96,0.87,10.0000,275.0000
1984-02-06 14:00:00 UTC,2445737.083333,28.7317,-95.2428,0036,-11.91,-1.46,12.0000,263.0000
1984-02-06 14:30:00 UTC,2445737.104167,28.7317,-95.2428,0036,-12.67,-2.92,13.0000,257.0000
1984-02-06 15:00:00 UTC,2445737.125000,28.7317,-95.2428,0036,-14.55,-3.63,15.0000,256.0000
1984-02-06 15:30:00 UTC,2445737.145833,28.7317,-95.2428,0036,-15.30,-4.68,16.0000,253.0000
1984-02-06 16:00:00 UTC,2445737.166667,28.7317,-95.2428,0036,-16.91,-6.16,18.0000,250.0000
1984-02-06 16:30:00 UTC,2445737.187500,28.7317,-95.2428,0036,-18.79,-6.84,20.0000,250.0000
1984-02-06 17:00:00 UTC,2445737.208333,28.7317,-95.2428,0036,-18.79,-6.84,20.0000,250.0000
1984-02-06 17:30:00 UTC,2445737.229167,28.7317,-95.2428,0036,-19.73,-7.18,21.0000,250.0000
1984-02-06 18:00:00 UTC,2445737.250000,28.7317,-95.2428,0036,-19.73,-7.18,21.0000,250.0000
1984-02-06 18:30:00 UTC,2445737.270833,28.7317,-95.2428,0036,-18.91,-6.51,20.0000,251.0000
1984-02-06 19:00:00 UTC,2445737.291667,28.7317,-95.2428,0036,-18.17,-5.56,19.0000,253.0000
1984-02-06 19:30:00 UTC,2445737.312500,28.7317,-95.2428,0036,-17.30,-4.96,18.0000,254.0000
1984-02-06 20:00:00 UTC,2445737.333333,28.7317,-95.2428,0036,-16.50,-4.11,17.0000,256.0000
1984-02-06 20:30:00 UTC,2445737.354167,28.7317,-95.2428,0036,-15.71,-3.05,16.0000,259.0000
1984-02-06 21:00:00 UTC,2445737.375000,28.7317,-95.2428,0036,-14.96,-1.05,15.0000,266.0000
1984-02-06 21:30:00 UTC,2445737.395833,28.7317,-95.2428,0036,-13.92,1.46,14.0000,276.0000
1984-02-06 22:00:00 UTC,2445737.416667,28.7317,-95.2428,0036,-12.56,3.36,13.0000,285.0000
1984-02-06 22:30:00 UTC,2445737.437500,28.7317,-95.2428,0036,-12.29,4.23,13.0000,289.0000
1984-02-06 23:00:00 UTC,2445737.458333,28.7317,-95.2428,0036,-11.20,4.30,12.0000,291.0000
1984-02-06 23:30:00 UTC,2445737.479167,28.7317,-95.2428,0036,-10.46,3.40,11.0000,288.0000
1984-02-07 00:00:00 UTC,2445737.500000,28.7317,-95.2428,0036,-10.80,2.10,11.0000,281.0000
1984-02-07 00:30:00 UTC,2445737.520833,28.7317,-95.2428,0036,-10.00,0.17,10.0000,271.0000
1984-02-07 01:00:00 UTC,2445737.541667,28.7317,-95.2428,0036,-10.86,-1.72,11.0000,261.0000
1984-02-07 01:30:00 UTC,2445737.562500,28.7317,-95.2428,0036,-10.57,-3.03,11.0000,254.0000
1984-02-07 02:00:00 UTC,2445737.583333,28.7317,-95.2428,0036,-10.20,-4.12,11.0000,248.0000
1984-02-07 02:30:00 UTC,2445737.604167,28.7317,-95.2428,0036,-10.29,-6.18,12.0000,239.0000
1984-02-07 03:00:00 UTC,2445737.625000,28.7317,-95.2428,0036,-9.33,-7.55,12.0000,231.0000
1984-02-07 03:30:00 UTC,2445737.645833,28.7317,-95.2428,0036,-8.63,-8.34,12.0000,226.0000
1984-02-07 04:00:00 UTC,2445737.666667,28.7317,-95.2428,0036,-8.36,-9.96,13.0000,220.0000
1984-02-07 04:30:00 UTC,2445737.687500,28.7317,-95.2428,0036,-7.64,-10.52,13.0000,216.0000
1984-02-07 05:00:00 UTC,2445737.708333,28.7317,-95.2428,0036,-7.64,-10.52,13.0000,216.0000
1984-02-07 05:30:00 UTC,2445737.729167,28.7317,-95.2428,0036,-7.64,-10.52,13.0000,216.0000
1984-02-07 06:00:00 UTC,2445737.750000,28.7317,-95.2428,0036,-6.62,-8.79,11.0000,217.0000
1984-02-07 06:30:00 UTC,2445737.770833,28.7317,-95.2428,0036,-6.29,-7.77,10.0000,219.0000
1984-02-07 07:00:00 UTC,2445737.791667,28.7317,-95.2428,0036,-5.35,-5.95,8.0000,222.0000
1984-02-07 07:30:00 UTC,2445737.812500,28.7317,-95.2428,0036,-4.95,-4.95,7.0000,225.0000
1984-02-07 08:00:00 UTC,2445737.833333,28.7317,-95.2428,0036,-4.66,-3.78,6.0000,231.0000
1984-02-07 08:30:00 UTC,2445737.854167,28.7317,-95.2428,0036,-5.20,-3.00,6.0000,240.0000
1984-02-07 09:00:00 UTC,2445737.875000,28.7317,-95.2428,0036,-5.60,-2.15,6.0000,249.0000
1984-02-07 09:30:00 UTC,2445737.895833,28.7317,-95.2428,0036,-5.89,-1.14,6.0000,259.0000
1984-02-07 10:00:00 UTC,2445737.916667,28.7317,-95.2428,0036,-6.00,-0.00,6.0000,270.0000
1984-02-07 10:30:00 UTC,2445737.937500,28.7317,-95.2428,0036,-4.99,0.35,5.0000,274.0000
1984-02-07 11:00:00 UTC,2445737.958333,28.7317,-95.2428,0036,-5.00,-0.17,5.0000,268.0000
1984-02-07 11:30:00 UTC,2445737.979167,28.7317,-95.2428,0036,-6.85,-1.46,7.0000,258.0000
1984-02-07 12:00:00 UTC,2445738.000000,28.7317,-95.2428,0036,-11.48,-3.51,12.0000,253.0000
1984-02-07 12:30:00 UTC,2445738.020833,28.7317,-95.2428,0036,-16.80,-6.45,18.0000,249.0000
1984-02-07 13:00:00 UTC,2445738.041667,28.7317,-95.2428,0036,-17.98,-8.77,20.0000,244.0000
1984-02-07 13:30:00 UTC,2445738.062500,28.7317,-95.2428,0036,-19.71,-11.85,23.0000,239.0000
1984-02-07 14:00:00 UTC,2445738.083333,28.7317,-95.2428,0036,-19.29,-12.53,23.0000,237.0000
1984-02-07 14:30:00 UTC,2445738.104167,28.7317,-95.2428,0036,-20.13,-13.07,24.0000,237.0000
1984-02-07 15:00:00 UTC,2445738.125000,28.7317,-95.2428,0036,-20.57,-12.36,24.0000,239.0000
1984-02-07 15:30:00 UTC,2445738.145833,28.7317,-95.2428,0036,-22.96,-12.21,26.0000,242.0000
1984-02-07 16:00:00 UTC,2445738.166667,28.7317,-95.2428,0036,-25.17,-12.27,28.0000,244.0000
1984-02-07 16:30:00 UTC,2445738.187500,28.7317,-95.2428,0036,-26.49,-11.80,29.0000,246.0000
1984-02-07 17:00:00 UTC,2445738.208333,28.7317,-95.2428,0036,-26.14,-10.03,28.0000,249.0000
1984-02-07 17:30:00 UTC,2445738.229167,28.7317,-95.2428,0036,-25.68,-8.34,27.0000,252.0000
1984-02-07 18:00:00 UTC,2445738.250000,28.7317,-95.2428,0036,-25.11,-6.73,26.0000,255.0000
1984-02-07 18:30:00 UTC,2445738.270833,28.7317,-95.2428,0036,-25.52,-4.96,26.0000,259.0000
1984-02-07 19:00:00 UTC,2445738.291667,28.7317,-95.2428,0036,-24.86,-2.61,25.0000,264.0000
1984-02-07 19:30:00 UTC,2445738.312500,28.7317,-95.2428,0036,-24.97,-1.31,25.0000,267.0000
1984-02-07 20:00:00 UTC,2445738.333333,28.7317,-95.2428,0036,-25.00,-0.44,25.0000,269.0000
1984-02-07 20:30:00 UTC,2445738.354167,28.7317,-95.2428,0036,-23.97,1.26,24.0000,273.0000
1984-02-07 21:00:00 UTC,2445738.375000,28.7317,-95.2428,0036,-21.92,1.92,22.0000,275.0000
1984-02-07 21:30:00 UTC,2445738.395833,28.7317,-95.2428,0036,-20.92,1.83,21.0000,275.0000
1984-02-07 22:00:00 UTC,2445738.416667,28.7317,-95.2428,0036,-17.93,1.57,18.0000,275.0000
1984-02-07 22:30:00 UTC,2445738.437500,28.7317,-95.2428,0036,-16.91,1.78,17.0000,276.0000
1984-02-07 23:00:00 UTC,2445738.458333,28.7317,-95.2428,0036,-15.98,0.84,16.0000,273.0000
1984-02-07 23:30:00 UTC,2445738.479167,28.7317,-95.2428,0036,-17.99,-0.63,18.0000,268.0000
1984-02-08 00:00:00 UTC,2445738.500000,28.7317,-95.2428,0036,-18.90,-1.99,19.0000,264.0000
1984-02-08 00:30:00 UTC,2445738.520833,28.7317,-95.2428,0036,-18.71,-3.30,19.0000,260.0000
1984-02-08 01:00:00 UTC,2445738.541667,28.7317,-95.2428,0036,-18.51,-4.27,19.0000,257.0000
1984-02-08 01:30:00 UTC,2445738.562500,28.7317,-95.2428,0036,-18.07,-5.87,19.0000,252.0000
1984-02-08 02:00:00 UTC,2445738.583333,28.7317,-95.2428,0036,-17.08,-8.33,19.0000,244.0000
1984-02-08 02:30:00 UTC,2445738.604167,28.7317,-95.2428,0036,-16.77,-10.89,20.0000,237.0000
1984-02-08 03:00:00 UTC,2445738.625000,28.7317,-95.2428,0036,-17.20,-12.05,21.0000,235.0000
1984-02-08 03:30:00 UTC,2445738.645833,28.7317,-95.2428,0036,-17.20,-12.05,21.0000,235.0000
1984-02-08 04:00:00 UTC,2445738.666667,28.7317,-95.2428,0036,-18.02,-12.62,22.0000,235.0000
1984-02-08 04:30:00 UTC,2445738.687500,28.7317,-95.2428,0036,-17.87,-14.47,23.0000,231.0000
1984-02-08 05:00:00 UTC,2445738.708333,28.7317,-95.2428,0036,-17.26,-16.67,24.0000,226.0000